Radiation Dose at Monitoring Post of Fukushima Daini Nuclear Power Station
Date,Time,MP-1(microSv/h),MP-2(microSv/h),MP-3(microSv/h),MP-4(microSv/h),MP-5(microSv/h),MP-6(microSv/h),MP-7(microSv/h),Wind Direction,Wind Velocity(m/s),Rain
2020/10/04,00:00,0.178,0.159,0.258,0.246,0.244,0.140,0.084,south-southwest,2.7,No
2020/10/04,00:10,0.177,0.160,0.258,0.246,0.246,0.138,0.085,south,1.7,No
2020/10/04,00:20,0.178,0.159,0.259,0.245,0.245,0.141,0.084,south-southwest,1.2,No
2020/10/04,00:30,0.177,0.160,0.257,0.246,0.246,0.140,0.085,south-southwest,1.1,No
2020/10/04,00:40,0.176,0.159,0.258,0.243,0.244,0.140,0.085,south,1.1,No
2020/10/04,00:50,0.177,0.160,0.258,0.245,0.246,0.139,0.085,south,1.5,No
2020/10/04,01:00,0.178,0.161,0.257,0.244,0.244,0.139,0.084,south-southeast,1.6,No
2020/10/04,01:10,0.177,0.159,0.258,0.246,0.247,0.140,0.084,south-southwest,2.3,No
2020/10/04,01:20,0.178,0.161,0.256,0.244,0.244,0.139,0.085,southwest,2.6,No
2020/10/04,01:30,0.178,0.160,0.258,0.245,0.247,0.139,0.084,south-southwest,1.9,No
2020/10/04,01:40,0.176,0.160,0.257,0.243,0.246,0.139,0.085,south-southwest,2.4,No
2020/10/04,01:50,0.178,0.160,0.258,0.245,0.245,0.139,0.084,southwest,1.6,No
2020/10/04,02:00,0.179,0.160,0.257,0.245,0.246,0.139,0.085,southwest,2.0,No
2020/10/04,02:10,0.177,0.160,0.259,0.246,0.245,0.140,0.084,west-southwest,1.7,No
2020/10/04,02:20,0.177,0.160,0.256,0.245,0.244,0.140,0.084,west,1.7,No
2020/10/04,02:30,0.178,0.160,0.259,0.244,0.246,0.140,0.085,northwest,1.2,No
2020/10/04,02:40,0.177,0.159,0.257,0.245,0.243,0.140,0.084,west-southwest,0.7,No
2020/10/04,02:50,0.178,0.159,0.256,0.244,0.246,0.140,0.083,southwest,0.6,No
2020/10/04,03:00,0.179,0.160,0.257,0.245,0.245,0.140,0.084,southwest,0.7,No
2020/10/04,03:10,0.177,0.160,0.257,0.243,0.245,0.140,0.085,-,CALM,No
2020/10/04,03:20,0.178,0.160,0.258,0.245,0.243,0.138,0.084,-,CALM,No
2020/10/04,03:30,0.178,0.160,0.257,0.243,0.246,0.139,0.085,south-southeast,1.2,No
2020/10/04,03:40,0.178,0.160,0.258,0.246,0.245,0.140,0.085,south-southwest,2.3,No
2020/10/04,03:50,0.178,0.160,0.257,0.244,0.245,0.140,0.085,south-southwest,2.5,No
2020/10/04,04:00,0.178,0.160,0.258,0.246,0.245,0.140,0.085,south-southwest,3.3,No
2020/10/04,04:10,0.178,0.159,0.256,0.244,0.244,0.140,0.085,south,2.6,No
2020/10/04,04:20,0.178,0.159,0.258,0.245,0.246,0.140,0.085,south-southwest,2.0,No
2020/10/04,04:30,0.178,0.160,0.257,0.244,0.244,0.140,0.085,south-southwest,2.4,No
2020/10/04,04:40,0.177,0.161,0.259,0.246,0.247,0.139,0.084,south-southwest,2.3,No
2020/10/04,04:50,0.177,0.159,0.256,0.244,0.244,0.140,0.084,southwest,2.0,No
2020/10/04,05:00,0.178,0.161,0.258,0.245,0.248,0.139,0.085,southwest,2.0,No
2020/10/04,05:10,0.178,0.160,0.257,0.244,0.244,0.140,0.085,southwest,1.7,No
2020/10/04,05:20,0.178,0.160,0.258,0.245,0.246,0.138,0.084,southwest,0.9,No
2020/10/04,05:30,0.177,0.160,0.257,0.246,0.245,0.140,0.085,-,CALM,No
2020/10/04,05:40,0.178,0.160,0.258,0.244,0.247,0.139,0.084,-,CALM,No
2020/10/04,05:50,0.176,0.160,0.258,0.245,0.244,0.140,0.085,south-southeast,0.7,No
2020/10/04,06:00,0.178,0.159,0.258,0.244,0.247,0.139,0.085,south-southeast,1.1,No
2020/10/04,06:10,0.177,0.160,0.257,0.246,0.244,0.140,0.085,south,0.7,No
2020/10/04,06:20,0.178,0.159,0.258,0.244,0.246,0.139,0.085,south-southwest,1.3,No
2020/10/04,06:30,0.178,0.160,0.257,0.245,0.245,0.139,0.085,southwest,2.1,No
2020/10/04,06:40,0.179,0.160,0.257,0.243,0.245,0.139,0.084,southwest,2.3,No
2020/10/04,06:50,0.177,0.161,0.257,0.245,0.245,0.139,0.084,south,1.4,No
2020/10/04,07:00,0.178,0.159,0.257,0.243,0.244,0.139,0.085,south,1.5,No
2020/10/04,07:10,0.178,0.160,0.256,0.245,0.246,0.139,0.084,south-southwest,1.6,No
2020/10/04,07:20,0.178,0.159,0.258,0.245,0.244,0.138,0.084,south-southwest,1.0,No
2020/10/04,07:30,0.177,0.160,0.256,0.244,0.247,0.140,0.084,southwest,1.0,No
2020/10/04,07:40,0.178,0.159,0.257,0.244,0.243,0.140,0.084,west-southwest,1.0,No
2020/10/04,07:50,0.178,0.160,0.256,0.244,0.245,0.139,0.084,-,CALM,No
2020/10/04,08:00,0.177,0.159,0.259,0.247,0.246,0.140,0.085,west-northwest,0.6,No
2020/10/04,08:10,0.179,0.159,0.258,0.243,0.244,0.139,0.085,west,0.7,No
2020/10/04,08:20,0.178,0.160,0.257,0.246,0.247,0.139,0.085,-,CALM,No
2020/10/04,08:30,0.178,0.159,0.259,0.245,0.244,0.139,0.084,north-northwest,1.3,No
2020/10/04,08:40,0.178,0.161,0.256,0.243,0.244,0.139,0.084,-,CALM,Yes
2020/10/04,08:50,0.177,0.159,0.259,0.245,0.247,0.140,0.085,-,CALM,No
2020/10/04,09:00,0.179,0.160,0.257,0.244,0.244,0.139,0.085,-,CALM,No
2020/10/04,09:10,0.177,0.161,0.256,0.243,0.244,0.138,0.085,east,0.6,No
2020/10/04,09:20,0.177,0.161,0.260,0.245,0.246,0.140,0.085,east,1.3,No
2020/10/04,09:30,0.179,0.159,0.258,0.244,0.244,0.140,0.085,east-southeast,1.5,No
2020/10/04,09:40,0.179,0.161,0.256,0.243,0.244,0.139,0.085,east-southeast,1.3,No
2020/10/04,09:50,0.177,0.160,0.260,0.244,0.247,0.141,0.085,southeast,1.7,No
2020/10/04,10:00,0.179,0.160,0.258,0.246,0.246,0.141,0.085,southeast,1.7,No
2020/10/04,10:10,0.179,0.161,0.258,0.244,0.244,0.139,0.086,east-southeast,1.1,No
2020/10/04,10:20,0.177,0.160,0.258,0.247,0.247,0.140,0.086,-,CALM,No
2020/10/04,10:30,0.179,0.162,0.257,0.243,0.245,0.141,0.085,south,0.8,No
2020/10/04,10:40,0.179,0.161,0.258,0.246,0.243,0.140,0.086,south-southeast,1.4,No
2020/10/04,10:50,0.178,0.160,0.260,0.247,0.247,0.140,0.085,south-southeast,1.6,No
2020/10/04,11:00,0.179,0.162,0.258,0.243,0.246,0.141,0.084,south,1.9,No
2020/10/04,11:10,0.179,0.160,0.258,0.244,0.244,0.138,0.085,south,2.1,No
2020/10/04,11:20,0.176,0.159,0.259,0.246,0.246,0.141,0.086,south-southwest,1.8,No
2020/10/04,11:30,0.178,0.161,0.259,0.245,0.247,0.140,0.085,south-southeast,1.2,No
2020/10/04,11:40,0.178,0.161,0.254,0.244,0.246,0.139,0.085,south,1.8,No
2020/10/04,11:50,0.177,0.160,0.258,0.247,0.244,0.139,0.085,south,2.5,No
2020/10/04,12:00,0.177,0.160,0.260,0.247,0.246,0.140,0.084,south,3.0,No
2020/10/04,12:10,0.178,0.161,0.257,0.243,0.247,0.140,0.083,south-southeast,3.1,No
2020/10/04,12:20,0.177,0.160,0.258,0.246,0.244,0.138,0.084,south-southeast,3.5,No
2020/10/04,12:30,0.176,0.158,0.259,0.246,0.245,0.141,0.084,south,2.3,No
2020/10/04,12:40,0.179,0.160,0.257,0.244,0.247,0.139,0.084,south,1.0,No
2020/10/04,12:50,0.178,0.160,0.257,0.245,0.244,0.139,0.084,south,1.3,No
2020/10/04,13:00,0.177,0.160,0.260,0.247,0.244,0.140,0.085,south,2.0,Yes
2020/10/04,13:10,0.177,0.160,0.259,0.244,0.246,0.139,0.084,south,2.9,Yes
2020/10/04,13:20,0.178,0.161,0.255,0.242,0.246,0.139,0.084,south-southeast,3.7,No
2020/10/04,13:30,0.176,0.159,0.258,0.245,0.243,0.139,0.085,south,3.7,No
2020/10/04,13:40,0.178,0.159,0.258,0.246,0.245,0.141,0.083,south,4.2,No
2020/10/04,13:50,0.178,0.160,0.257,0.243,0.247,0.139,0.083,south-southeast,5.0,No
2020/10/04,14:00,0.177,0.159,0.256,0.244,0.244,0.138,0.084,south-southeast,5.1,Yes
2020/10/04,14:10,0.176,0.158,0.259,0.246,0.244,0.139,0.085,south-southeast,4.6,Yes
2020/10/04,14:20,0.178,0.160,0.258,0.244,0.247,0.139,0.084,south,5.3,No
2020/10/04,14:30,0.177,0.159,0.255,0.244,0.245,0.138,0.084,south-southeast,5.3,No
2020/10/04,14:40,0.177,0.159,0.258,0.246,0.242,0.138,0.085,south,6.2,No
2020/10/04,14:50,0.176,0.159,0.257,0.245,0.243,0.140,0.084,south,5.9,No
2020/10/04,15:00,0.178,0.161,0.256,0.244,0.246,0.139,0.084,south,4.6,No
2020/10/04,15:10,0.177,0.159,0.259,0.247,0.244,0.138,0.085,south,4.2,No
2020/10/04,15:20,0.176,0.159,0.258,0.245,0.243,0.139,0.084,south,4.6,No
2020/10/04,15:30,0.179,0.161,0.256,0.242,0.246,0.139,0.083,south,3.8,No
2020/10/04,15:40,0.179,0.160,0.258,0.247,0.246,0.139,0.084,south,3.7,No
2020/10/04,15:50,0.177,0.158,0.259,0.246,0.244,0.139,0.085,south,4.4,No
2020/10/04,16:00,0.178,0.160,0.256,0.243,0.244,0.139,0.084,south,4.8,No
2020/10/04,16:10,0.180,0.160,0.258,0.245,0.248,0.140,0.083,south,5.2,No
2020/10/04,16:20,0.177,0.159,0.260,0.247,0.245,0.139,0.085,south,5.9,No
2020/10/04,16:30,0.176,0.160,0.257,0.244,0.244,0.140,0.084,south,4.9,No
2020/10/04,16:40,0.179,0.159,0.259,0.245,0.248,0.139,0.084,south,5.7,No
2020/10/04,16:50,0.177,0.160,0.259,0.246,0.245,0.139,0.084,south,5.6,No
2020/10/04,17:00,0.177,0.160,0.257,0.243,0.245,0.140,0.084,south,4.6,No
2020/10/04,17:10,0.178,0.160,0.260,0.247,0.248,0.139,0.084,south,4.4,No
2020/10/04,17:20,0.177,0.160,0.257,0.243,0.244,0.139,0.084,south,3.4,No
2020/10/04,17:30,0.177,0.160,0.258,0.245,0.246,0.140,0.084,south,2.9,No
2020/10/04,17:40,0.179,0.160,0.260,0.245,0.246,0.139,0.084,south,4.2,No
2020/10/04,17:50,0.177,0.159,0.257,0.244,0.246,0.140,0.084,south,4.1,No
2020/10/04,18:00,0.179,0.159,0.260,0.247,0.247,0.139,0.084,south,4.9,No
2020/10/04,18:10,0.177,0.160,0.258,0.245,0.245,0.138,0.084,south,5.8,No
2020/10/04,18:20,0.178,0.160,0.258,0.246,0.246,0.139,0.084,south,5.5,No
2020/10/04,18:30,0.178,0.160,0.258,0.246,0.247,0.139,0.085,south,5.6,No
2020/10/04,18:40,0.176,0.159,0.257,0.244,0.242,0.139,0.084,south,6.5,No
2020/10/04,18:50,0.179,0.161,0.260,0.246,0.247,0.140,0.084,south,6.2,No
2020/10/04,19:00,0.178,0.161,0.258,0.244,0.244,0.138,0.084,south,5.6,No
2020/10/04,19:10,0.176,0.160,0.260,0.247,0.246,0.139,0.084,south,4.7,No
2020/10/04,19:20,0.178,0.160,0.258,0.244,0.245,0.139,0.084,south-southwest,4.6,No
2020/10/04,19:30,0.177,0.158,0.258,0.246,0.244,0.139,0.084,south-southwest,4.8,No
2020/10/04,19:40,0.179,0.161,0.258,0.246,0.246,0.141,0.085,south,5.2,No
2020/10/04,19:50,0.177,0.160,0.258,0.244,0.244,0.140,0.085,south,5.9,No
2020/10/04,20:00,0.178,0.161,0.260,0.246,0.246,0.139,0.084,south,5.8,No
2020/10/04,20:10,0.178,0.158,0.257,0.244,0.246,0.140,0.084,south,5.4,No
2020/10/04,20:20,0.179,0.160,0.260,0.246,0.245,0.139,0.084,south,4.1,No
2020/10/04,20:30,0.178,0.160,0.257,0.243,0.246,0.140,0.085,south,4.6,No
2020/10/04,20:40,0.177,0.161,0.259,0.245,0.244,0.140,0.084,south-southwest,4.8,No
2020/10/04,20:50,0.178,0.161,0.259,0.245,0.246,0.139,0.084,south-southwest,4.8,No
2020/10/04,21:00,0.178,0.161,0.259,0.244,0.244,0.140,0.085,south,5.7,No
2020/10/04,21:10,0.178,0.159,0.259,0.247,0.245,0.139,0.084,south,6.0,No
2020/10/04,21:20,0.179,0.160,0.259,0.244,0.245,0.140,0.085,south-southwest,6.6,No
2020/10/04,21:30,0.176,0.161,0.260,0.248,0.244,0.139,0.084,south-southwest,6.4,No
2020/10/04,21:40,0.179,0.161,0.258,0.246,0.248,0.140,0.085,south-southwest,6.5,No
2020/10/04,21:50,0.176,0.159,0.261,0.247,0.244,0.139,0.084,south,5.6,No
2020/10/04,22:00,0.179,0.160,0.258,0.245,0.247,0.140,0.084,south-southwest,5.6,No
2020/10/04,22:10,0.177,0.160,0.260,0.245,0.245,0.140,0.084,south-southwest,5.8,No
2020/10/04,22:20,0.179,0.160,0.258,0.245,0.248,0.139,0.083,south-southwest,7.6,No
2020/10/04,22:30,0.176,0.159,0.260,0.246,0.243,0.140,0.084,south,8.1,No
2020/10/04,22:40,0.178,0.160,0.257,0.245,0.246,0.139,0.084,south,7.1,No
2020/10/04,22:50,0.179,0.160,0.259,0.244,0.245,0.139,0.085,south-southwest,7.6,No
2020/10/04,23:00,0.178,0.160,0.258,0.247,0.244,0.139,0.084,south-southwest,7.0,No
2020/10/04,23:10,0.177,0.160,0.259,0.244,0.246,0.139,0.084,south,6.9,No
2020/10/04,23:20,0.177,0.160,0.258,0.245,0.244,0.140,0.083,south,7.3,No
2020/10/04,23:30,0.178,0.160,0.260,0.244,0.246,0.138,0.083,south,7.2,No
2020/10/04,23:40,0.177,0.160,0.257,0.245,0.245,0.141,0.084,south,6.5,No
2020/10/04,23:50,0.178,0.159,0.259,0.244,0.247,0.139,0.084,south,6.2,No
